Location: East Horndon
(51.5667°N, 0.3500°E)
Time: 12:30:13
(UTC+00:00)

CBERS-1 - Pass Details

Date: 08 November 2025
Orbit: 765 x 772 km, 98.8° (Epoch: 09 December)

Event Time Altitude Azimuth Distance (km) Brightness Sun altitude
Rises 06:07:19 0° 15° (NNE) 3,262 7.3 -9.2°
Reaches altitude 10° 06:09:38 10° 16° (NNE) 2,331 6.5 -8.8°
Maximum altitude 06:14:48 89° 100° (E) 780 4.1 -8.1°
Drops below altitude 10° 06:19:54 10° 197° (SSW) 2,311 6.5 -7.3°
Sets 06:22:12 0° 198° (SSW) 3,233 7.3 -7.0°
